3CAT-2 (41732 NORAD) Tracking and Keplerian Element Data

This shows tracking and keplerian element data for the satellite.

Feedback or suggestion? Click here.




ElementValue
Catalog41732
Name3CAT-2
Epoch Orbit8626
Epoch Day63.81240194
Epoch Year2018
RAAN342.0659
Inclination97.3781
Eccentricity0.0015511
Argument of Perigee75.0732
Mean Anonmoly336.0101
Mean Motion15.25767477
Decay Rate1.214E-05
L11 41732U 16051B 18063.81240194 .00001214 00000-0 50253-4 0 9994
L22 41732 97.3781 342.0659 0015511 75.0732 336.0101 15.25767477 86267



Live tracking and technical data element details for 3CAT-2 (NORAD 41732). 3CAT-2 can be tracked NOW for your location showing map with azimuth and elevation plus other details from your city location.







IsCatalogInMostPopularTable: catalog: 41732, numindb: 515
Update: records affected: 1



GetName: 41732 3CAT-2

Hit Count: updated at: Fri, 16 May 2025 10:47:32 GMT